Вернуться в каталог

STARLINK-32516

АктивенСвязьVLEO
NORAD 62176·PAYLOAD·🇺🇸 United States

Запущен Nov 30, 2024 с Vandenberg Space Force Base

Loading…

Ближайшие Пролёты (ближайшие 24 часа)

TLE

СвежийSource: CelesTrak SupGP

Эпоха: Sep 15, 2026, 02:08 UTC

1 62176C 24225P   26258.08937500 -.00045477  00000+0 -38129-2 0  2583
2 62176  70.0013  47.0121 0003039 272.3312  51.7870 14.98336171    17

Отслеживайте STARLINK-32516 в реальном времени с AllMySat

Download on the App Store